Wind_Speed
69 68 65 66 68 66 61 54 55 54 55 57 52 54 55 56 53 48 43 43 39 42 34 34 34 36 35 31 31 33 34 34 34 36 38 39 37 33 33 33 32 34 35 36
79 73 76 71 70 67 71 67 65 65 64 61 60 58 58 60 56 51 47 45 44 42 39 35 35 36 36 35 35 36 38 39 39 39 38 40 40 40 35 31 33 33 35 37
84 81 77 76 74 71 70 69 72 69 66 65 63 59 61 61 59 57 53 51 49 45 42 40 40 42 41 39 38 38 40 42 43 43 42 42 40 43 42 40 38 37 37 39
90 87 84 81 81 81 82 81 77 72 72 70 68 60 62 66 63 61 60 56 52 50 49 46 44 44 44 46 44 44 43 45 46 46 47 46 46 45 45 45 44 43 43 43
89 91 93 89 89 86 85 83 80 80 80 73 67 67 67 69 67 66 63 61 59 56 51 51 50 49 50 50 49 48 46 47 49 49 52 51 50 49 50 49 50 50 50 50
93 92 92 90 88 87 86 88 89 88 84 75 72 72 63 72 70 68 67 65 64 62 58 57 57 55 53 52 54 56 53 54 52 52 54 54 54 53 55 57 57 56 55 54
89 92 93 92 91 90 87 88 89 85 83 76 75 73 65 67 72 71 70 68 69 68 64 63 62 60 57 58 59 59 59 59 56 55 56 56 58 60 61 63 64 65 63 61
90 89 89 89 90 91 92 90 88 85 83 77 72 66 67 67 70 73 74 73 72 71 69 67 66 65 63 62 63 64 64 64 59 58 59 60 61 63 66 67 68 71 71 69
92 92 89 87 88 89 88 89 88 85 81 78 75 70 69 71 75 77 77 77 76 75 75 71 70 68 70 71 71 70 70 69 67 65 64 65 65 67 69 72 74 76 77 77
98 95 91 91 93 89 85 86 86 84 82 79 72 70 69 76 79 79 77 77 79 78 75 76 75 77 78 79 80 79 77 75 73 71 70 70 71 73 75 75 77 80 82 84
97 95 95 96 92 92 94 93 92 90 87 83 76 71 71 76 78 78 78 78 80 82 81 80 81 83 84 84 84 83 83 83 82 81 78 76 77 79 80 82 83 84 85 85
102 99 98 96 98 99 98 95 94 93 90 89 85 73 77 78 81 81 81 84 86 87 88 88 86 86 86 87 87 87 88 89 88 87 87 87 88 88 88 87 89 89 89 89
105 105 104 102 103 103 103 99 98 98 99 96 97 82 87 91 91 90 91 92 92 93 93 93 94 95 95 95 94 93 92 93 93 92 92 92 93 92 92 92 93 94 94 96
109 109 110 109 109 110 105 103 104 104 104 101 99 92 91 93 96 98 100 99 99 101 101 101 103 102 101 101 99 99 98 97 98 97 97 95 97 97 98 99 99 100 101 102
117 113 110 108 106 106 106 105 104 105 106 106 103 101 95 99 103 102 100 101 103 105 106 106 106 105 105 104 104 104 103 104 104 104 103 103 103 104 105 104 104 106 107 109
118 119 118 120 120 117 111 109 110 109 110 110 111 107 96 104 105 105 108 109 110 109 109 110 110 111 112 111 111 112 112 112 111 109 109 110 110 110 112 110 110 110 112 112
109 115 118 120 122 125 124 118 120 121 121 122 122 115 111 109 111 112 113 113 114 113 113 115 114 114 115 115 115 116 118 120 119 118 118 117 115 114 116 115 114 114 112 111
95 101 108 111 114 120 108 113 116 123 124 125 124 121 120 119 117 119 122 121 121 120 120 120 119 121 121 119 116 115 114 114 117 120 118 120 118 112 111 109 108 105 104 109
94 95 93 95 104 104 99 99 107 113 114 114 113 115 113 111 109 109 112 114 114 115 112 110 109 106 106 106 103 102 104 106 107 106 107 108 107 109 105 104 105 100 100 98
103 100 102 101 100 92 78 92 97 100 97 94 100 102 104 102 99 94 98 99 102 102 102 103 103 103 103 106 104 106 108 110 111 112 113 116 115 113 115 115 116 111 113 111
108 110 108 107 108 100 87 99 108 110 102 106 108 109 109 107 105 100 102 106 107 107 108 108 110 111 114 114 116 117 119 121 120 122 123 124 125 124 125 125 123 121 121 119
118 119 116 117 116 103 99 110 111 112 112 114 115 117 115 113 113 114 113 115 114 116 117 118 119 121 122 122 123 125 126 128 129 129 127 127 127 126 128 130 130 128 127 128
126 126 127 125 121 116 113 119 122 124 125 122 120 122 125 123 127 127 125 127 127 127 127 126 127 128 128 126 125 124 125 123 122 123 123 125 125 124 124 127 129 129 130 130
137 135 133 131 129 129 130 131 133 135 134 135 134 133 137 138 136 130 127 125 124 125 126 126 126 125 124 122 120 119 119 118 117 118 117 117 117 119 118 119 121 122 124 125
139 140 139 142 140 141 142 141 143 141 141 141 142 138 134 130 126 125 123 121 119 118 118 119 118 117 115 113 112 111 110 109 110 110 111 113 111 113 115 114 115 116 117 118
137 140 141 139 138 142 143 146 147 144 144 141 138 134 131 126 122 119 117 114 113 111 109 108 108 108 108 106 106 105 104 103 103 103 104 106 105 106 109 109 110 112 113 114
Wind_Direction
239 241 238 243 246 249 251 247 251 257 261 272 275 280 282 280 275 269 274 275 278 290 290 292 296 303 305 307 306 303 299 295 293 294 295 293 291 287 287 290 287 285 286 286
242 238 243 246 244 247 247 253 257 261 263 266 271 278 278 279 270 266 267 269 273 277 281 282 280 290 296 304 311 301 297 295 293 291 290 290 292 291 287 283 287 284 281 283
239 241 242 243 245 246 248 253 258 261 258 265 268 273 277 271 263 264 264 264 267 272 269 269 274 284 290 296 302 299 298 295 293 292 292 291 289 289 291 290 286 285 283 283
239 243 243 243 243 247 248 255 256 259 262 263 264 269 271 267 263 262 263 265 265 267 271 268 270 274 279 286 291 296 296 292 290 290 290 290 290 289 288 289 291 290 291 289
239 238 241 244 247 251 253 253 257 260 260 261 262 265 261 263 261 260 262 264 264 267 267 267 266 270 274 277 284 291 293 287 285 286 286 287 287 288 288 288 291 292 292 290
239 241 242 244 245 247 248 254 256 259 257 257 258 261 251 259 258 260 261 262 263 265 266 266 264 265 267 272 281 286 289 290 286 283 283 285 287 289 290 291 291 291 288 285
236 238 240 242 244 246 247 251 253 253 255 255 254 256 250 251 258 258 259 260 263 266 267 269 267 265 268 272 278 283 286 289 286 283 281 283 285 287 288 289 290 290 289 287
238 241 242 243 243 246 248 251 253 253 253 251 248 248 249 248 251 257 259 261 263 262 264 267 266 265 269 272 275 279 283 287 284 283 281 280 280 283 284 286 287 286 287 288
235 236 237 241 243 245 247 249 249 250 249 249 251 251 249 249 247 249 255 260 263 264 267 268 268 266 269 273 276 279 281 280 280 280 277 278 279 280 281 282 284 285 288 289
235 235 237 241 243 245 246 245 247 249 248 247 245 246 246 246 246 247 251 256 260 263 266 268 270 273 276 279 281 283 283 281 279 279 279 279 279 280 280 281 281 284 287 289
237 238 238 239 240 241 242 243 246 248 249 248 245 245 248 250 250 250 251 253 255 258 261 263 266 271 274 276 279 280 281 282 281 281 280 278 279 279 281 280 281 283 285 286
238 239 240 241 241 242 244 245 247 248 249 249 246 244 249 249 251 253 252 253 253 255 257 259 261 266 270 273 274 275 276 276 277 278 279 280 282 282 283 283 282 283 283 283
241 242 242 242 244 246 246 248 250 250 252 253 253 250 252 252 252 254 255 256 258 260 260 262 263 264 265 266 268 270 273 274 275 276 277 278 279 279 280 282 283 283 283 284
243 244 245 245 245 246 248 250 252 252 253 254 256 255 257 256 256 254 255 258 259 259 260 262 263 264 265 267 267 268 269 270 272 273 275 276 277 278 279 279 280 280 280 281
244 245 246 247 247 247 248 249 252 254 255 256 256 257 262 262 259 259 261 261 260 261 263 264 264 265 266 268 269 270 271 272 272 272 272 272 273 275 276 277 277 278 279 280
246 248 250 251 250 249 249 251 252 254 256 257 257 256 261 261 264 264 262 261 262 263 263 264 265 266 267 269 270 271 272 273 272 273 273 273 273 273 274 275 276 276 276 277
245 248 248 249 253 253 252 252 254 256 257 259 258 259 259 262 262 264 266 266 267 267 267 266 267 267 268 269 270 271 273 275 276 276 275 274 273 273 274 274 274 274 275 275
245 245 247 250 251 252 254 255 258 258 258 260 261 261 261 262 263 264 265 267 269 270 271 271 271 271 271 272 272 273 271 271 272 272 275 275 275 277 276 273 273 273 276 275
260 261 259 256 251 251 252 255 256 257 258 261 262 264 265 266 266 266 267 267 267 267 267 268 268 269 269 270 270 270 271 271 272 272 274 273 275 274 275 273 272 273 273 273
257 258 262 262 263 262 258 258 257 257 257 263 267 267 266 264 263 265 266 267 266 266 266 265 265 264 267 267 268 273 271 273 276 277 276 272 272 272 273 274 271 272 276 278
260 261 263 262 261 260 261 263 263 264 270 268 270 273 275 274 273 271 272 273 273 274 274 273 273 274 275 274 275 276 275 275 276 276 275 275 274 271 271 272 270 270 273 275
262 264 266 266 268 268 266 266 270 269 270 272 274 275 275 275 276 276 278 277 275 273 276 275 275 275 273 272 273 274 273 275 276 274 272 272 272 272 272 272 271 271 272 273
264 265 265 267 270 272 271 271 271 272 274 275 275 276 276 277 279 280 281 280 278 277 278 277 277 277 276 275 274 273 273 273 273 272 272 272 272 271 271 272 272 272 272 273
260 262 263 265 267 269 270 271 271 272 273 275 276 275 276 278 278 279 280 278 276 276 276 275 275 276 275 275 275 275 275 274 273 272 272 271 271 272 271 271 271 271 271 272
258 259 262 264 265 265 267 268 270 272 274 273 274 278 278 276 277 277 276 276 277 276 276 276 276 276 276 276 276 275 275 274 274 273 272 271 271 271 271 270 270 271 271 271
258 259 262 264 263 263 263 265 267 269 271 273 275 274 274 275 275 275 276 276 276 276 275 275 275 276 276 276 276 275 275 274 273 273 273 272 272 271 272 272 271 271 270 270
Height
10718 10726 10732 10730 10739 10750 10757 10760 10762 10766 10769 10774 10776 10778 10781 10782 10782 10781 10779 10779 10780 10780 10784 10781 10778 10778 10779 10779 10777 10776 10775 10773 10772 10770 10768 10766 10765 10765 10763 10761 10760 10756 10752 10749
10707 10714 10714 10724 10731 10737 10744 10747 10750 10756 10762 10766 10769 10769 10770 10773 10771 10770 10770 10770 10770 10772 10775 10774 10773 10772 10771 10771 10771 10770 10768 10767 10766 10765 10763 10759 10757 10755 10756 10756 10752 10751 10748 10744
10693 10699 10707 10713 10720 10724 10730 10734 10736 10744 10749 10756 10760 10762 10760 10760 10758 10759 10758 10758 10760 10763 10764 10765 10764 10764 10765 10765 10765 10762 10761 10759 10757 10756 10754 10752 10750 10747 10745 10744 10744 10743 10741 10738
10680 10690 10695 10700 10706 10710 10715 10719 10723 10731 10739 10744 10749 10758 10748 10747 10747 10747 10745 10748 10750 10751 10753 10756 10756 10756 10755 10754 10756 10756 10754 10751 10749 10747 10745 10743 10741 10738 10736 10734 10732 10731 10730 10729
10666 10670 10676 10684 10688 10694 10701 10706 10711 10716 10723 10731 10738 10745 10732 10734 10735 10731 10733 10734 10737 10739 10742 10744 10745 10746 10745 10743 10744 10746 10746 10743 10740 10737 10734 10733 10731 10727 10725 10723 10720 10718 10718 10716
10651 10656 10667 10670 10673 10678 10685 10688 10692 10700 10708 10720 10721 10726 10732 10715 10720 10720 10721 10721 10722 10726 10730 10730 10731 10732 10732 10732 10732 10731 10732 10731 10730 10728 10724 10721 10719 10716 10712 10708 10706 10703 10702 10702
10639 10642 10648 10654 10656 10662 10670 10672 10675 10682 10691 10707 10707 10710 10724 10711 10701 10705 10706 10707 10708 10710 10714 10716 10716 10718 10718 10719 10719 10719 10719 10718 10718 10716 10714 10711 10707 10704 10699 10695 10692 10688 10685 10685
10626 10633 10638 10643 10644 10646 10649 10655 10663 10670 10677 10684 10690 10701 10703 10703 10697 10688 10685 10690 10693 10697 10698 10699 10701 10703 10705 10705 10705 10705 10706 10706 10707 10705 10702 10700 10697 10693 10688 10684 10680 10672 10667 10666
10605 10613 10619 10626 10626 10629 10639 10645 10641 10649 10660 10668 10677 10685 10686 10682 10679 10679 10675 10674 10678 10679 10681 10683 10685 10687 10687 10689 10691 10691 10692 10692 10693 10691 10689 10686 10683 10680 10674 10667 10662 10656 10651 10648
10585 10592 10602 10606 10610 10617 10624 10624 10624 10631 10639 10649 10664 10666 10668 10660 10659 10663 10669 10669 10664 10667 10668 10665 10664 10664 10665 10666 10668 10671 10671 10671 10672 10672 10672 10671 10666 10661 10656 10652 10645 10640 10637 10632
10568 10575 10584 10586 10593 10593 10593 10603 10605 10610 10619 10633 10648 10654 10650 10645 10645 10650 10651 10654 10654 10652 10652 10649 10650 10652 10652 10651 10649 10648 10646 10645 10645 10646 10647 10647 10646 10642 10638 10634 10629 10625 10621 10616
10548 10553 10562 10568 10569 10574 10578 10586 10590 10592 10603 10605 10619 10644 10634 10628 10626 10630 10633 10632 10631 10633 10637 10639 10642 10640 10637 10635 10634 10632 10630 10627 10627 10627 10625 10623 10620 10619 10616 10612 10609 10606 10603 10597
10527 10534 10542 10547 10553 10560 10563 10566 10569 10575 10579 10592 10594 10627 10609 10607 10608 10611 10609 10610 10617 10619 10622 10625 10625 10623 10619 10617 10617 10615 10612 10609 10606 10608 10607 10605 10601 10597 10594 10592 10588 10583 10580 10575
10507 10515 10519 10527 10532 10534 10540 10544 10548 10553 10559 10571 10578 10588 10589 10586 10583 10585 10589 10596 10596 10595 10596 10596 10596 10597 10596 10593 10593 10594 10593 10592 10590 10590 10588 10585 10579 10576 10573 10570 10565 10561 10557 10554
10488 10493 10496 10500 10508 10512 10516 10523 10527 10531 10536 10542 10554 10560 10561 10554 10561 10569 10568 10569 10572 10574 10573 10573 10573 10573 10572 10571 10568 10569 10569 10567 10567 10567 10565 10562 10559 10554 10550 10546 10541 10537 10532 10527
10464 10469 10473 10472 10478 10484 10496 10505 10509 10514 10515 10519 10518 10535 10537 10527 10536 10538 10539 10543 10544 10547 10548 10546 10546 10546 10547 10547 10547 10542 10539 10537 10537 10538 10536 10534 10534 10531 10527 10522 10518 10513 10507 10503
10440 10445 10448 10447 10450 10459 10475 10493 10486 10487 10489 10484 10489 10507 10511 10515 10515 10513 10510 10511 10513 10515 10518 10518 10519 10519 10518 10518 10520 10517 10513 10509 10504 10503 10500 10501 10501 10500 10497 10494 10489 10484 10482 10478
10419 10423 10422 10424 10427 10431 10467 10466 10459 10455 10457 10454 10465 10474 10481 10487 10489 10487 10484 10488 10486 10487 10487 10486 10488 10488 10487 10487 10487 10485 10480 10478 10474 10470 10469 10465 10464 10463 10462 10460 10458 10455 10454 10449
10396 10397 10400 10401 10407 10422 10446 10441 10429 10426 10431 10433 10441 10441 10445 10453 10464 10464 10458 10457 10459 10460 10461 10462 10461 10459 10457 10457 10456 10453 10450 10449 10447 10444 10440 10436 10431 10429 10427 10426 10425 10423 10421 10419
10374 10373 10372 10382 10385 10399 10436 10409 10402 10396 10410 10419 10408 10407 10413 10421 10430 10442 10432 10429 10427 10431 10435 10436 10433 10432 10431 10428 10428 10426 10421 10416 10414 10412 10410 10406 10402 10398 10395 10392 10390 10388 10387 10385
10345 10348 10352 10354 10355 10379 10415 10388 10372 10366 10392 10383 10381 10380 10382 10388 10392 10407 10405 10399 10397 10398 10398 10399 10399 10399 10398 10396 10395 10392 10388 10385 10381 10376 10372 10368 10365 10363 10359 10357 10354 10354 10352 10349
10317 10317 10328 10326 10325 10355 10373 10350 10343 10346 10349 10352 10352 10351 10353 10355 10360 10363 10375 10372 10368 10364 10362 10362 10364 10363 10361 10362 10361 10357 10351 10348 10344 10340 10336 10331 10327 10325 10324 10321 10320 10316 10316 10313
10289 10297 10296 10297 10305 10320 10331 10326 10316 10310 10311 10315 10323 10321 10321 10327 10329 10329 10336 10336 10330 10329 10328 10325 10323 10321 10318 10318 10317 10316 10311 10310 10306 10300 10297 10294 10291 10289 10288 10284 10282 10280 10277 10275
10265 10272 10269 10271 10285 10288 10287 10285 10284 10281 10282 10285 10290 10291 10286 10290 10297 10301 10298 10300 10299 10294 10289 10286 10284 10282 10278 10275 10274 10274 10271 10269 10267 10265 10262 10257 10256 10254 10252 10250 10246 10243 10241 10238
10243 10245 10250 10245 10257 10257 10248 10247 10247 10251 10253 10255 10255 10256 10257 10252 10258 10260 10263 10259 10260 10259 10254 10249 10245 10242 10239 10238 10235 10233 10232 10232 10228 10226 10224 10220 10222 10218 10215 10214 10212 10209 10207 10204
10225 10219 10215 10216 10218 10215 10219 10221 10215 10218 10223 10223 10225 10226 10221 10219 10219 10223 10225 10224 10223 10221 10218 10215 10212 10207 10203 10201 10198 10196 10194 10194 10193 10192 10190 10186 10187 10183 10178 10178 10178 10176 10174 10170